• In Germany
  • List of Countries
  • For 7 days
  • Water Temperature
  • Satellite Maps
  • Weather Map
  • Weather Widgets
  • user-avatar
    Login

    Hourly Weather Shaki

    Today, 29 May, Monday

    Time Temperature Precipitation Wind Pressure Humidity
    00:00 +16°C° 0 mm 1 mps 736 mmHg 67%
    01:00 +15°C° 0 mm 1 mps 736 mmHg 68%
    02:00 +15°C° 0 mm 1 mps 736 mmHg 70%
    03:00 +15°C° 0 mm 1 mps 737 mmHg 71%
    04:00 +16°C° 0 mm 1 mps 737 mmHg 66%
    05:00 +19°C° 0 mm 1 mps 737 mmHg 61%
    06:00 +20°C° 0 mm 1 mps 737 mmHg 56%
    07:00 +22°C° 0 mm 1 mps 738 mmHg 51%
    08:00 +24°C° 0 mm 1 mps 738 mmHg 45%
    09:00 +25°C° 0 mm 1 mps 738 mmHg 40%
    10:00 +26°C° 0 mm 2 mps 738 mmHg 37%
    11:00 +27°C° 0 mm 2 mps 738 mmHg 34%
    12:00 +28°C° 0 mm 2 mps 738 mmHg 31%
    13:00 +29°C° 0 mm 2 mps 738 mmHg 31%
    14:00 +29°C° 0 mm 3 mps 738 mmHg 32%
    15:00 +29°C° 0 mm 3 mps 737 mmHg 32%
    16:00 +28°C° 0 mm 3 mps 737 mmHg 35%
    17:00 +27°C° 0 mm 3 mps 738 mmHg 39%
    18:00 +26°C° 0 mm 3 mps 738 mmHg 43%
    19:00 +24°C° 0 mm 3 mps 738 mmHg 49%
    20:00 +21°C° 0 mm 4 mps 738 mmHg 55%
    21:00 +18°C° 0 mm 4 mps 738 mmHg 62%
    22:00 +18°C° 0 mm 3 mps 738 mmHg 65%
    23:00 +18°C° 0 mm 3 mps 738 mmHg 68%

    Tomorrow, 30 May, Tuesday

    Time Temperature Precipitation Wind Pressure Humidity
    00:00 +17°C° 0 mm 3 mps 738 mmHg 71%
    01:00 +17°C° 0 mm 2 mps 738 mmHg 72%
    02:00 +16°C° 0 mm 2 mps 737 mmHg 72%
    03:00 +16°C° 0 mm 2 mps 737 mmHg 73%
    04:00 +17°C° 0 mm 2 mps 737 mmHg 68%
    05:00 +19°C° 0 mm 1 mps 737 mmHg 63%
    06:00 +20°C° 0 mm 1 mps 737 mmHg 59%
    07:00 +21°C° 0 mm 2 mps 737 mmHg 52%
    08:00 +24°C° 0 mm 2 mps 736 mmHg 46%
    09:00 +26°C° 0 mm 2 mps 736 mmHg 40%
    10:00 +27°C° 0 mm 2 mps 735 mmHg 36%
    11:00 +29°C° 0 mm 2 mps 735 mmHg 32%
    12:00 +30°C° 0 mm 2 mps 734 mmHg 28%
    13:00 +31°C° 0 mm 2 mps 734 mmHg 26%
    14:00 +31°C° 0 mm 2 mps 734 mmHg 24%
    15:00 +32°C° 0 mm 2 mps 733 mmHg 22%
    16:00 +31°C° 0 mm 2 mps 733 mmHg 25%
    17:00 +30°C° 0 mm 1 mps 733 mmHg 28%
    18:00 +29°C° 0 mm 1 mps 733 mmHg 31%
    19:00 +26°C° 0 mm 1 mps 733 mmHg 32%
    20:00 +24°C° 0 mm 1 mps 733 mmHg 34%
    21:00 +21°C° 0 mm 1 mps 733 mmHg 36%
    22:00 +20°C° 0 mm 2 mps 733 mmHg 34%
    23:00 +20°C° 0 mm 2 mps 733 mmHg 31%

    Day after tomorrow, 31 May, Wednesday

    Time Temperature Precipitation Wind Pressure Humidity
    00:00 +19°C° 0 mm 2 mps 733 mmHg 29%
    01:00 +19°C° 0 mm 2 mps 733 mmHg 30%
    02:00 +19°C° 0 mm 2 mps 733 mmHg 31%
    03:00 +19°C° 0 mm 2 mps 733 mmHg 32%
    04:00 +20°C° 0 mm 2 mps 733 mmHg 33%
    05:00 +21°C° 0 mm 2 mps 733 mmHg 34%
    06:00 +24°C° 0 mm 2 mps 733 mmHg 36%
    07:00 +26°C° 0 mm 2 mps 733 mmHg 30%
    08:00 +28°C° 0 mm 2 mps 733 mmHg 25%
    09:00 +30°C° 0 mm 2 mps 733 mmHg 20%
    10:00 +31°C° 0 mm 2 mps 733 mmHg 19%
    11:00 +32°C° 0 mm 2 mps 733 mmHg 18%
    12:00 +33°C° 0 mm 1 mps 732 mmHg 16%
    13:00 +34°C° 0 mm 2 mps 732 mmHg 16%
    14:00 +34°C° 0 mm 2 mps 732 mmHg 16%
    15:00 +34°C° 0 mm 2 mps 731 mmHg 16%
    16:00 +32°C° 0 mm 2 mps 731 mmHg 21%
    17:00 +30°C° 0 mm 1 mps 731 mmHg 26%
    18:00 +29°C° 0 mm 1 mps 731 mmHg 31%
    19:00 +27°C° 0.1 mm 1 mps 732 mmHg 31%
    20:00 +25°C° 0.1 mm 2 mps 732 mmHg 30%
    21:00 +23°C° 0.1 mm 2 mps 733 mmHg 30%
    22:00 +21°C° 0.1 mm 2 mps 733 mmHg 35%
    23:00 +20°C° 0.1 mm 2 mps 732 mmHg 39%

    1 June, Thursday

    Time Temperature Precipitation Wind Pressure Humidity
    00:00 +21°C° 0.1 mm 1 mps 732 mmHg 44%
    01:00 +20°C° 0.1 mm 1 mps 732 mmHg 45%
    02:00 +19°C° 0.1 mm 2 mps 732 mmHg 46%
    03:00 +19°C° 0.1 mm 2 mps 732 mmHg 47%
    04:00 +20°C° 0.1 mm 2 mps 732 mmHg 49%
    05:00 +20°C° 0.1 mm 2 mps 732 mmHg 51%
    06:00 +21°C° 0.1 mm 2 mps 732 mmHg 52%
    07:00 +24°C° 0 mm 3 mps 732 mmHg 46%
    08:00 +26°C° 0 mm 3 mps 732 mmHg 39%
    09:00 +27°C° 0 mm 3 mps 732 mmHg 33%
    10:00 +28°C° 0.1 mm 3 mps 732 mmHg 31%
    11:00 +29°C° 0.1 mm 3 mps 732 mmHg 29%
    12:00 +30°C° 0.1 mm 3 mps 731 mmHg 27%
    13:00 +30°C° 0.1 mm 3 mps 731 mmHg 26%
    14:00 +30°C° 0.1 mm 3 mps 731 mmHg 25%
    15:00 +31°C° 0.1 mm 2 mps 731 mmHg 24%
    16:00 +30°C° 0 mm 2 mps 731 mmHg 27%
    17:00 +29°C° 0 mm 2 mps 731 mmHg 30%
    18:00 +28°C° 0 mm 2 mps 731 mmHg 33%
    19:00 +25°C° 0.1 mm 2 mps 732 mmHg 36%
    20:00 +22°C° 0.1 mm 1 mps 732 mmHg 40%
    21:00 +19°C° 0.1 mm 1 mps 732 mmHg 44%
    22:00 +19°C° 0 mm 1 mps 732 mmHg 45%
    23:00 +18°C° 0 mm 1 mps 733 mmHg 46%

    2 June, Friday

    Time Temperature Precipitation Wind Pressure Humidity
    00:00 +18°C° 0 mm 1 mps 733 mmHg 47%
    01:00 +16°C° 0 mm 1 mps 733 mmHg 51%
    02:00 +16°C° 0 mm 1 mps 733 mmHg 55%
    03:00 +15°C° 0 mm 1 mps 732 mmHg 60%
    04:00 +18°C° 0 mm 1 mps 733 mmHg 56%
    05:00 +19°C° 0 mm 1 mps 733 mmHg 53%
    06:00 +21°C° 0 mm 1 mps 734 mmHg 49%
    07:00 +23°C° 0 mm 2 mps 734 mmHg 44%
    08:00 +25°C° 0 mm 2 mps 734 mmHg 38%
    09:00 +26°C° 0 mm 2 mps 734 mmHg 33%
    10:00 +27°C° 0 mm 2 mps 734 mmHg 31%
    11:00 +28°C° 0 mm 2 mps 734 mmHg 30%
    12:00 +29°C° 0 mm 1 mps 734 mmHg 28%
    13:00 +30°C° 0 mm 1 mps 733 mmHg 28%
    14:00 +30°C° 0 mm 1 mps 733 mmHg 27%
    15:00 +30°C° 0 mm 1 mps 733 mmHg 27%
    16:00 +29°C° 0 mm 1 mps 733 mmHg 30%
    17:00 +29°C° 0 mm 2 mps 734 mmHg 33%
    18:00 +28°C° 0 mm 2 mps 734 mmHg 35%
    19:00 +25°C° 0 mm 2 mps 734 mmHg 40%
    20:00 +23°C° 0 mm 2 mps 734 mmHg 45%
    21:00 +19°C° 0 mm 3 mps 735 mmHg 50%
    22:00 +19°C° 0 mm 2 mps 735 mmHg 53%
    23:00 +18°C° 0 mm 2 mps 735 mmHg 57%

    3 June, Saturday

    Time Temperature Precipitation Wind Pressure Humidity
    00:00 +17°C° 0 mm 2 mps 735 mmHg 61%
    01:00 +18°C° 0 mm 1 mps 734 mmHg 62%
    02:00 +16°C° 0 mm 1 mps 734 mmHg 63%
    03:00 +16°C° 0 mm 1 mps 734 mmHg 64%
    04:00 +19°C° 0 mm 1 mps 735 mmHg 59%
    05:00 +21°C° 0 mm 1 mps 735 mmHg 54%
    06:00 +22°C° 0 mm 1 mps 736 mmHg 49%
    07:00 +24°C° 0 mm 1 mps 736 mmHg 46%
    08:00 +25°C° 0 mm 1 mps 736 mmHg 43%
    09:00 +27°C° 0 mm 1 mps 736 mmHg 40%
    10:00 +28°C° 0 mm 1 mps 735 mmHg 38%
    11:00 +29°C° 0 mm 1 mps 735 mmHg 36%
    12:00 +30°C° 0 mm 2 mps 735 mmHg 34%
    13:00 +30°C° 0.2 mm 2 mps 734 mmHg 34%
    14:00 +30°C° 0.2 mm 2 mps 734 mmHg 34%
    15:00 +30°C° 0.2 mm 2 mps 734 mmHg 34%
    16:00 +30°C° 0 mm 2 mps 734 mmHg 35%
    17:00 +29°C° 0 mm 2 mps 734 mmHg 37%
    18:00 +28°C° 0 mm 2 mps 734 mmHg 39%
    19:00 +26°C° 0 mm 2 mps 734 mmHg 42%
    20:00 +24°C° 0 mm 2 mps 735 mmHg 46%
    21:00 +21°C° 0 mm 3 mps 735 mmHg 49%
    22:00 +20°C° 0 mm 2 mps 735 mmHg 54%
    23:00 +19°C° 0 mm 2 mps 735 mmHg 59%
    Show more